Time,TemperatureF,DewpointF,PressureIn,WindDirection,WindDirectionDegrees,WindSpeedMPH,WindSpeedGustMPH,Humidity,HourlyPrecipIn,Conditions,Clouds,dailyrainin,SoftwareType,DateUTC
2017-05-25 00:00:00,46.5,44.6,29.92,East,96,0.0,0.0,93,0.00,,,0.02,Wunderground v.1.15,2017-05-25 07:00:00,
2017-05-25 00:05:00,46.3,44.4,29.92,ESE,110,0.0,0.0,93,0.00,,,0.00,Wunderground v.1.15,2017-05-25 07:05:00,
2017-05-25 00:12:00,46.2,44.3,29.92,ESE,110,0.0,0.0,93,0.00,,,0.00,Wunderground v.1.15,2017-05-25 07:12:00,
2017-05-25 00:18:00,46.0,44.1,29.92,ESE,110,0.0,0.0,93,0.00,,,0.00,Wunderground v.1.15,2017-05-25 07:18:00,
2017-05-25 00:26:00,45.6,43.7,29.92,ESE,110,0.0,0.0,93,0.00,,,0.00,Wunderground v.1.15,2017-05-25 07:26:00,
2017-05-25 00:32:00,45.4,43.5,29.92,ESE,110,0.0,0.0,93,0.00,,,0.00,Wunderground v.1.15,2017-05-25 07:32:00,
2017-05-25 00:38:00,45.3,43.7,29.92,ESE,110,0.0,0.0,94,0.00,,,0.00,Wunderground v.1.15,2017-05-25 07:38:00,
2017-05-25 00:46:00,45.0,43.4,29.92,ESE,110,0.0,0.0,94,0.00,,,0.00,Wunderground v.1.15,2017-05-25 07:46:00,
2017-05-25 00:51:00,44.6,43.0,29.92,ESE,110,0.0,0.0,94,0.00,,,0.00,Wunderground v.1.15,2017-05-25 07:51:00,
2017-05-25 00:58:00,44.4,42.8,29.92,ESE,110,0.0,0.0,94,0.00,,,0.00,Wunderground v.1.15,2017-05-25 07:58:00,
2017-05-25 01:06:00,44.3,43.0,29.91,ESE,110,0.0,0.0,95,0.00,,,0.00,Wunderground v.1.15,2017-05-25 08:06:00,
2017-05-25 01:12:00,44.3,43.0,29.91,ESE,110,0.0,0.0,95,0.00,,,0.00,Wunderground v.1.15,2017-05-25 08:12:00,
2017-05-25 01:18:00,44.6,43.3,29.91,ESE,110,0.0,0.0,95,0.00,,,0.00,Wunderground v.1.15,2017-05-25 08:18:00,
2017-05-25 01:26:00,44.4,43.1,29.91,ESE,110,0.0,0.0,95,0.00,,,0.00,Wunderground v.1.15,2017-05-25 08:26:00,
2017-05-25 01:32:00,44.2,42.9,29.91,ESE,110,0.0,0.0,95,0.00,,,0.00,Wunderground v.1.15,2017-05-25 08:32:00,
2017-05-25 01:38:00,44.1,42.8,29.91,ESE,110,0.0,0.0,95,0.00,,,0.00,Wunderground v.1.15,2017-05-25 08:38:00,
2017-05-25 01:44:00,44.0,42.7,29.91,ESE,110,0.0,0.0,95,0.00,,,0.00,Wunderground v.1.15,2017-05-25 08:44:00,
2017-05-25 01:50:00,43.9,42.6,29.91,ESE,110,0.0,0.0,95,0.00,,,0.00,Wunderground v.1.15,2017-05-25 08:50:00,
2017-05-25 01:56:00,43.7,42.4,29.91,ESE,110,0.0,0.0,95,0.00,,,0.00,Wunderground v.1.15,2017-05-25 08:56:00,
2017-05-25 02:02:00,43.6,42.3,29.91,ESE,110,0.0,0.0,95,0.00,,,0.00,Wunderground v.1.15,2017-05-25 09:02:00,
2017-05-25 02:08:00,43.3,42.0,29.91,ESE,110,0.0,0.0,95,0.00,,,0.00,Wunderground v.1.15,2017-05-25 09:08:00,
2017-05-25 02:16:00,42.9,41.6,29.91,ESE,110,0.0,0.0,95,0.00,,,0.00,Wunderground v.1.15,2017-05-25 09:16:00,
2017-05-25 02:22:00,42.7,41.4,29.92,ESE,110,0.0,0.0,95,0.00,,,0.00,Wunderground v.1.15,2017-05-25 09:22:00,
2017-05-25 02:28:00,42.6,41.5,29.91,ESE,110,0.0,0.0,96,0.00,,,0.00,Wunderground v.1.15,2017-05-25 09:28:00,
2017-05-25 02:35:00,42.2,41.1,29.92,ESE,110,0.0,0.0,96,0.00,,,0.00,Wunderground v.1.15,2017-05-25 09:35:00,
2017-05-25 02:41:00,42.4,41.3,29.92,ESE,110,0.0,0.0,96,0.00,,,0.00,Wunderground v.1.15,2017-05-25 09:41:00,
2017-05-25 02:48:00,42.3,41.2,29.91,ESE,110,0.0,0.0,96,0.00,,,0.00,Wunderground v.1.15,2017-05-25 09:48:00,
2017-05-25 02:56:00,42.0,40.9,29.91,ESE,110,0.0,0.0,96,0.00,,,0.00,Wunderground v.1.15,2017-05-25 09:56:00,
2017-05-25 03:01:00,42.2,41.1,29.91,ESE,110,0.0,0.0,96,0.00,,,0.00,Wunderground v.1.15,2017-05-25 10:01:00,
2017-05-25 03:08:00,42.2,41.1,29.91,ESE,110,0.0,0.0,96,0.00,,,0.00,Wunderground v.1.15,2017-05-25 10:08:00,
2017-05-25 03:16:00,42.1,41.0,29.91,ESE,110,0.0,0.0,96,0.00,,,0.00,Wunderground v.1.15,2017-05-25 10:16:00,
2017-05-25 03:22:00,41.8,40.7,29.91,ESE,110,0.0,0.0,96,0.00,,,0.00,Wunderground v.1.15,2017-05-25 10:22:00,
2017-05-25 03:28:00,41.7,40.6,29.91,ESE,110,0.0,0.0,96,0.00,,,0.00,Wunderground v.1.15,2017-05-25 10:28:00,
2017-05-25 03:36:00,41.4,40.3,29.92,ESE,110,0.0,0.0,96,0.00,,,0.00,Wunderground v.1.15,2017-05-25 10:36:00,
2017-05-25 03:42:00,41.7,40.9,29.92,ESE,110,0.0,0.0,97,0.00,,,0.00,Wunderground v.1.15,2017-05-25 10:42:00,
2017-05-25 03:48:00,41.9,40.8,29.92,ESE,110,0.0,0.0,96,0.00,,,0.00,Wunderground v.1.15,2017-05-25 10:48:00,
2017-05-25 03:55:00,41.8,40.7,29.92,ESE,110,0.0,0.0,96,0.00,,,0.00,Wunderground v.1.15,2017-05-25 10:55:00,
2017-05-25 04:02:00,41.6,40.5,29.92,ESE,110,0.0,0.0,96,0.00,,,0.00,Wunderground v.1.15,2017-05-25 11:02:00,
2017-05-25 04:08:00,41.3,40.2,29.92,ESE,110,0.0,0.0,96,0.00,,,0.00,Wunderground v.1.15,2017-05-25 11:08:00,
2017-05-25 04:15:00,41.1,40.0,29.92,ESE,110,0.0,0.0,96,0.00,,,0.00,Wunderground v.1.15,2017-05-25 11:15:00,
2017-05-25 04:21:00,40.9,39.8,29.92,ESE,110,0.0,0.0,96,0.00,,,0.00,Wunderground v.1.15,2017-05-25 11:21:00,
2017-05-25 04:28:00,40.9,39.8,29.92,ESE,110,0.0,0.0,96,0.00,,,0.00,Wunderground v.1.15,2017-05-25 11:28:00,
2017-05-25 04:34:00,41.1,40.3,29.92,ESE,110,0.0,0.0,97,0.00,,,0.00,Wunderground v.1.15,2017-05-25 11:34:00,
2017-05-25 04:40:00,40.9,39.8,29.92,ESE,110,0.0,0.0,96,0.00,,,0.00,Wunderground v.1.15,2017-05-25 11:40:00,
2017-05-25 04:46:00,40.8,39.7,29.92,ESE,110,0.0,0.0,96,0.00,,,0.00,Wunderground v.1.15,2017-05-25 11:46:00,
2017-05-25 04:52:00,40.8,40.0,29.92,ESE,111,0.0,0.0,97,0.00,,,0.00,Wunderground v.1.15,2017-05-25 11:52:00,
2017-05-25 04:57:00,40.8,40.0,29.92,ESE,111,0.0,0.0,97,0.00,,,0.00,Wunderground v.1.15,2017-05-25 11:57:00,
2017-05-25 05:06:00,40.9,40.1,29.92,ESE,111,0.0,0.0,97,0.00,,,0.00,Wunderground v.1.15,2017-05-25 12:06:00,
2017-05-25 05:12:00,40.8,40.0,29.92,NW,326,0.0,0.0,97,0.00,,,0.00,Wunderground v.1.15,2017-05-25 12:12:00,
2017-05-25 05:17:00,40.8,40.0,29.92,NW,326,0.0,0.0,97,0.00,,,0.00,Wunderground v.1.15,2017-05-25 12:17:00,
2017-05-25 05:26:00,40.8,40.0,29.92,NW,326,0.0,0.0,97,0.00,,,0.00,Wunderground v.1.15,2017-05-25 12:26:00,
2017-05-25 05:32:00,40.9,40.1,29.92,NW,326,0.0,0.0,97,0.00,,,0.00,Wunderground v.1.15,2017-05-25 12:32:00,
2017-05-25 05:38:00,41.1,40.3,29.92,NW,326,0.0,0.0,97,0.00,,,0.00,Wunderground v.1.15,2017-05-25 12:38:00,
2017-05-25 05:46:00,41.1,40.3,29.92,NW,326,0.0,0.0,97,0.00,,,0.00,Wunderground v.1.15,2017-05-25 12:46:00,
2017-05-25 05:52:00,41.2,40.4,29.92,NW,326,0.0,0.0,97,0.00,,,0.00,Wunderground v.1.15,2017-05-25 12:52:00,
2017-05-25 05:57:00,41.4,40.6,29.92,NW,326,0.0,0.0,97,0.00,,,0.00,Wunderground v.1.15,2017-05-25 12:57:00,
2017-05-25 06:06:00,41.5,40.7,29.92,NW,326,0.0,0.0,97,0.00,,,0.00,Wunderground v.1.15,2017-05-25 13:06:00,
2017-05-25 06:12:00,41.7,40.9,29.92,NW,326,0.0,0.0,97,0.00,,,0.00,Wunderground v.1.15,2017-05-25 13:12:00,
2017-05-25 06:19:00,42.0,41.2,29.92,NW,326,0.0,0.0,97,0.00,,,0.00,Wunderground v.1.15,2017-05-25 13:19:00,
2017-05-25 06:26:00,42.2,41.4,29.92,NW,326,0.0,0.0,97,0.00,,,0.00,Wunderground v.1.15,2017-05-25 13:26:00,
2017-05-25 06:32:00,42.5,41.7,29.92,NW,326,0.0,0.0,97,0.00,,,0.00,Wunderground v.1.15,2017-05-25 13:32:00,
2017-05-25 06:38:00,42.8,42.0,29.92,NW,326,0.0,0.0,97,0.00,,,0.00,Wunderground v.1.15,2017-05-25 13:38:00,
2017-05-25 06:46:00,43.2,42.4,29.92,NW,326,0.0,0.0,97,0.00,,,0.00,Wunderground v.1.15,2017-05-25 13:46:00,
2017-05-25 06:52:00,43.5,42.7,29.92,NW,326,0.0,0.0,97,0.00,,,0.00,Wunderground v.1.15,2017-05-25 13:52:00,
2017-05-25 06:57:00,43.6,42.8,29.92,NW,326,0.0,0.0,97,0.00,,,0.00,Wunderground v.1.15,2017-05-25 13:57:00,
2017-05-25 07:04:00,43.8,43.0,29.92,NW,326,0.0,0.0,97,0.00,,,0.00,Wunderground v.1.15,2017-05-25 14:04:00,
2017-05-25 07:10:00,44.0,43.2,29.92,NW,326,0.0,0.0,97,0.00,,,0.00,Wunderground v.1.15,2017-05-25 14:10:00,
2017-05-25 07:15:00,44.2,43.4,29.92,NW,312,0.0,0.0,97,0.00,,,0.00,Wunderground v.1.15,2017-05-25 14:15:00,
2017-05-25 07:22:00,44.5,43.7,29.92,NW,311,0.0,0.0,97,0.00,,,0.00,Wunderground v.1.15,2017-05-25 14:22:00,
2017-05-25 07:28:00,44.9,44.1,29.92,NW,312,0.0,0.0,97,0.00,,,0.00,Wunderground v.1.15,2017-05-25 14:28:00,
2017-05-25 07:34:00,45.6,44.8,29.92,West,274,0.0,0.0,97,0.00,,,0.00,Wunderground v.1.15,2017-05-25 14:34:00,
2017-05-25 07:40:00,47.2,46.4,29.92,West,280,0.0,0.0,97,0.00,,,0.00,Wunderground v.1.15,2017-05-25 14:40:00,
2017-05-25 07:46:00,48.6,47.5,29.92,NE,36,0.0,0.0,96,0.00,,,0.00,Wunderground v.1.15,2017-05-25 14:46:00,
2017-05-25 07:52:00,49.3,47.4,29.92,ESE,109,0.0,1.0,93,0.00,,,0.00,Wunderground v.1.15,2017-05-25 14:52:00,
2017-05-25 07:57:00,49.9,47.1,29.92,ESE,120,0.0,1.0,90,0.00,,,0.00,Wunderground v.1.15,2017-05-25 14:57:00,
2017-05-25 08:06:00,51.4,47.4,29.92,ESE,118,0.0,0.0,86,0.00,,,0.00,Wunderground v.1.15,2017-05-25 15:06:00,
2017-05-25 08:12:00,52.7,48.0,29.92,ESE,118,0.0,0.0,84,0.00,,,0.00,Wunderground v.1.15,2017-05-25 15:12:00,
2017-05-25 08:17:00,52.6,47.3,29.92,ESE,110,1.0,3.0,82,0.00,,,0.00,Wunderground v.1.15,2017-05-25 15:17:00,
2017-05-25 08:26:00,52.3,46.6,29.92,East,98,1.0,1.0,81,0.00,,,0.00,Wunderground v.1.15,2017-05-25 15:26:00,
2017-05-25 08:32:00,52.8,47.5,29.92,SE,135,2.0,4.0,82,0.00,,,0.00,Wunderground v.1.15,2017-05-25 15:32:00,
2017-05-25 08:38:00,53.9,47.5,29.92,SSE,158,1.0,4.0,79,0.00,,,0.00,Wunderground v.1.15,2017-05-25 15:38:00,
2017-05-25 08:46:00,54.1,47.4,29.92,ESE,105,1.0,4.0,78,0.00,,,0.00,Wunderground v.1.15,2017-05-25 15:46:00,
2017-05-25 08:52:00,54.5,47.8,29.92,ESE,104,1.0,1.0,78,0.00,,,0.00,Wunderground v.1.15,2017-05-25 15:52:00,
2017-05-25 08:57:00,54.6,46.8,29.92,NW,325,1.0,1.0,75,0.00,,,0.00,Wunderground v.1.15,2017-05-25 15:57:00,
2017-05-25 09:06:00,54.5,47.1,29.91,SW,236,1.0,4.0,76,0.00,,,0.00,Wunderground v.1.15,2017-05-25 16:06:00,
2017-05-25 09:12:00,55.0,47.2,29.91,SSW,208,2.0,2.0,75,0.00,,,0.00,Wunderground v.1.15,2017-05-25 16:12:00,
2017-05-25 09:17:00,55.3,47.9,29.91,SSW,203,1.0,2.0,76,0.00,,,0.00,Wunderground v.1.15,2017-05-25 16:17:00,
2017-05-25 09:24:00,55.8,48.0,29.91,SW,228,1.0,4.0,75,0.00,,,0.00,Wunderground v.1.15,2017-05-25 16:24:00,
2017-05-25 09:30:00,55.6,47.8,29.91,WNW,300,2.0,2.0,75,0.00,,,0.00,Wunderground v.1.15,2017-05-25 16:30:00,
2017-05-25 09:36:00,55.6,47.4,29.91,NW,305,2.0,3.0,74,0.00,,,0.00,Wunderground v.1.15,2017-05-25 16:36:00,
2017-05-25 09:42:00,56.2,48.0,29.91,SW,228,1.0,3.0,74,0.00,,,0.00,Wunderground v.1.15,2017-05-25 16:42:00,
2017-05-25 09:48:00,56.7,47.8,29.91,SW,221,2.0,3.0,72,0.00,,,0.00,Wunderground v.1.15,2017-05-25 16:48:00,
2017-05-25 09:55:00,57.7,48.4,29.91,North,8,1.0,2.0,71,0.00,,,0.00,Wunderground v.1.15,2017-05-25 16:55:00,
2017-05-25 10:02:00,58.2,48.5,29.90,NNW,343,1.0,1.0,70,0.00,,,0.00,Wunderground v.1.15,2017-05-25 17:02:00,
2017-05-25 10:08:00,59.0,48.4,29.90,NE,50,0.0,1.0,68,0.00,,,0.00,Wunderground v.1.15,2017-05-25 17:08:00,
2017-05-25 10:15:00,59.1,48.5,29.90,South,176,1.0,2.0,68,0.00,,,0.00,Wunderground v.1.15,2017-05-25 17:15:00,
2017-05-25 10:22:00,58.6,48.1,29.90,SE,134,2.0,3.0,68,0.00,,,0.00,Wunderground v.1.15,2017-05-25 17:22:00,
2017-05-25 10:28:00,59.0,48.8,29.89,SSW,212,2.0,3.0,69,0.00,,,0.00,Wunderground v.1.15,2017-05-25 17:28:00,
2017-05-25 10:30:00,59.3,48.3,29.89,SW,217,2.0,3.0,67,0.00,,,0.00,Wunderground v.1.15,2017-05-25 17:30:00,
2017-05-25 10:36:00,59.6,48.6,29.89,SW,235,2.0,3.0,67,0.00,,,0.00,Wunderground v.1.15,2017-05-25 17:36:00,
2017-05-25 10:42:00,59.1,48.1,29.89,NW,323,2.0,3.0,67,0.00,,,0.00,Wunderground v.1.15,2017-05-25 17:42:00,
2017-05-25 10:48:00,59.1,48.1,29.89,NE,53,2.0,4.0,67,0.00,,,0.00,Wunderground v.1.15,2017-05-25 17:48:00,
2017-05-25 10:55:00,59.6,49.0,29.89,SW,232,2.0,4.0,68,0.00,,,0.00,Wunderground v.1.15,2017-05-25 17:55:00,
2017-05-25 11:02:00,59.5,48.9,29.89,SSE,160,3.0,4.0,68,0.00,,,0.00,Wunderground v.1.15,2017-05-25 18:02:00,
2017-05-25 11:08:00,59.5,48.9,29.89,ESE,122,3.0,4.0,68,0.00,,,0.00,Wunderground v.1.15,2017-05-25 18:08:00,
2017-05-25 11:15:00,61.6,50.9,29.89,ESE,117,1.0,2.0,68,0.00,,,0.00,Wunderground v.1.15,2017-05-25 18:15:00,
2017-05-25 11:21:00,62.7,50.8,29.89,SSW,203,1.0,2.0,65,0.00,,,0.00,Wunderground v.1.15,2017-05-25 18:21:00,
2017-05-25 11:28:00,62.3,50.4,29.89,South,180,2.0,6.0,65,0.00,,,0.00,Wunderground v.1.15,2017-05-25 18:28:00,
2017-05-25 11:34:00,62.0,50.5,29.89,South,182,3.0,5.0,66,0.00,,,0.00,Wunderground v.1.15,2017-05-25 18:34:00,
2017-05-25 11:40:00,61.8,50.7,29.89,SW,235,4.0,4.0,67,0.00,,,0.00,Wunderground v.1.15,2017-05-25 18:40:00,
2017-05-25 11:46:00,61.3,50.2,29.89,WNW,284,3.0,7.0,67,0.00,,,0.00,Wunderground v.1.15,2017-05-25 18:46:00,
2017-05-25 11:52:00,61.1,50.5,29.89,SSW,201,3.0,3.0,68,0.00,,,0.00,Wunderground v.1.15,2017-05-25 18:52:00,
2017-05-25 11:58:00,61.7,51.0,29.88,South,187,3.0,5.0,68,0.00,,,0.00,Wunderground v.1.15,2017-05-25 18:58:00,
2017-05-25 12:06:00,62.2,50.3,29.89,West,269,3.0,6.0,65,0.00,,,0.00,Wunderground v.1.15,2017-05-25 19:06:00,
2017-05-25 12:12:00,62.0,50.5,29.89,South,184,3.0,6.0,66,0.00,,,0.00,Wunderground v.1.15,2017-05-25 19:12:00,
2017-05-25 12:18:00,62.4,50.5,29.88,ESE,114,2.0,6.0,65,0.00,,,0.00,Wunderground v.1.15,2017-05-25 19:18:00,
2017-05-25 12:24:00,62.4,50.9,29.88,SSE,153,2.0,3.0,66,0.00,,,0.00,Wunderground v.1.15,2017-05-25 19:24:00,
2017-05-25 12:30:00,62.4,50.9,29.88,SSW,197,2.0,4.0,66,0.00,,,0.00,Wunderground v.1.15,2017-05-25 19:30:00,
2017-05-25 12:36:00,63.0,51.5,29.88,ESE,103,3.0,4.0,66,0.00,,,0.00,Wunderground v.1.15,2017-05-25 19:36:00,
2017-05-25 12:42:00,63.6,51.6,29.88,South,172,3.0,6.0,65,0.00,,,0.00,Wunderground v.1.15,2017-05-25 19:42:00,
2017-05-25 12:48:00,64.6,53.0,29.88,SSE,149,3.0,6.0,66,0.00,,,0.00,Wunderground v.1.15,2017-05-25 19:48:00,
2017-05-25 12:55:00,64.0,52.0,29.87,ESE,103,4.0,9.0,65,0.00,,,0.00,Wunderground v.1.15,2017-05-25 19:55:00,
2017-05-25 13:02:00,64.0,52.4,29.87,ESE,109,5.0,11.0,66,0.00,,,0.00,Wunderground v.1.15,2017-05-25 20:02:00,
2017-05-25 13:08:00,63.4,52.2,29.87,East,96,7.0,11.0,67,0.00,,,0.00,Wunderground v.1.15,2017-05-25 20:08:00,
2017-05-25 13:16:00,64.7,53.1,29.87,East,79,3.0,6.0,66,0.00,,,0.00,Wunderground v.1.15,2017-05-25 20:16:00,
2017-05-25 13:22:00,65.6,52.7,29.87,NW,326,2.0,6.0,63,0.00,,,0.00,Wunderground v.1.15,2017-05-25 20:22:00,
2017-05-25 13:28:00,65.6,52.7,29.87,SSW,203,4.0,6.0,63,0.00,,,0.00,Wunderground v.1.15,2017-05-25 20:28:00,
2017-05-25 13:34:00,64.8,51.5,29.87,WNW,288,4.0,4.0,62,0.00,,,0.00,Wunderground v.1.15,2017-05-25 20:34:00,
2017-05-25 13:40:00,65.7,53.2,29.87,NNE,31,2.0,2.0,64,0.00,,,0.00,Wunderground v.1.15,2017-05-25 20:40:00,
2017-05-25 13:46:00,66.4,53.0,29.86,West,280,2.0,2.0,62,0.00,,,0.00,Wunderground v.1.15,2017-05-25 20:46:00,
2017-05-25 13:52:00,65.3,51.9,29.87,WNW,302,2.0,2.0,62,0.00,,,0.00,Wunderground v.1.15,2017-05-25 20:52:00,
2017-05-25 13:57:00,64.8,51.9,29.86,WNW,294,2.0,2.0,63,0.00,,,0.00,Wunderground v.1.15,2017-05-25 20:57:00,
2017-05-25 14:06:00,65.8,52.4,29.86,North,8,1.0,3.0,62,0.00,,,0.00,Wunderground v.1.15,2017-05-25 21:06:00,
2017-05-25 14:12:00,67.0,53.5,29.86,WNW,289,1.0,2.0,62,0.00,,,0.00,Wunderground v.1.15,2017-05-25 21:12:00,
2017-05-25 14:17:00,66.4,52.1,29.86,SW,222,2.0,2.0,60,0.00,,,0.00,Wunderground v.1.15,2017-05-25 21:17:00,
2017-05-25 14:24:00,66.6,52.3,29.86,NNW,346,3.0,3.0,60,0.00,,,0.00,Wunderground v.1.15,2017-05-25 21:24:00,
2017-05-25 14:29:00,67.5,53.6,29.86,NNE,19,2.0,2.0,61,0.00,,,0.00,Wunderground v.1.15,2017-05-25 21:29:00,
2017-05-25 14:36:00,68.3,52.5,29.85,NE,53,1.0,3.0,57,0.00,,,0.00,Wunderground v.1.15,2017-05-25 21:36:00,
2017-05-25 14:42:00,68.6,52.8,29.85,NE,56,2.0,5.0,57,0.00,,,0.00,Wunderground v.1.15,2017-05-25 21:42:00,
2017-05-25 14:48:00,68.4,53.0,29.85,NW,319,2.0,5.0,58,0.00,,,0.00,Wunderground v.1.15,2017-05-25 21:48:00,
2017-05-25 14:55:00,69.2,52.8,29.85,ESE,105,1.0,2.0,56,0.00,,,0.00,Wunderground v.1.15,2017-05-25 21:55:00,
2017-05-25 15:02:00,69.4,52.5,29.85,ENE,60,1.0,1.0,55,0.00,,,0.00,Wunderground v.1.15,2017-05-25 22:02:00,
2017-05-25 15:08:00,68.3,51.5,29.85,NE,47,2.0,2.0,55,0.00,,,0.00,Wunderground v.1.15,2017-05-25 22:08:00,
2017-05-25 15:15:00,69.0,52.2,29.85,ESE,105,1.0,4.0,55,0.00,,,0.00,Wunderground v.1.15,2017-05-25 22:15:00,
2017-05-25 15:21:00,69.4,52.5,29.84,NE,41,1.0,3.0,55,0.00,,,0.00,Wunderground v.1.15,2017-05-25 22:21:00,
2017-05-25 15:28:00,69.5,53.1,29.84,SE,134,1.0,3.0,56,0.00,,,0.00,Wunderground v.1.15,2017-05-25 22:28:00,
2017-05-25 15:36:00,69.2,53.8,29.84,NW,321,2.0,6.0,58,0.00,,,0.00,Wunderground v.1.15,2017-05-25 22:36:00,
2017-05-25 15:42:00,68.9,54.0,29.84,NE,36,3.0,3.0,59,0.00,,,0.00,Wunderground v.1.15,2017-05-25 22:42:00,
2017-05-25 15:48:00,69.1,54.2,29.84,WSW,256,3.0,3.0,59,0.00,,,0.00,Wunderground v.1.15,2017-05-25 22:48:00,
2017-05-25 15:55:00,68.6,53.7,29.84,WNW,298,4.0,4.0,59,0.00,,,0.00,Wunderground v.1.15,2017-05-25 22:55:00,
2017-05-25 16:02:00,68.6,53.7,29.84,North,1,4.0,4.0,59,0.00,,,0.00,Wunderground v.1.15,2017-05-25 23:02:00,
2017-05-25 16:08:00,68.6,54.2,29.83,NW,309,3.0,4.0,60,0.00,,,0.00,Wunderground v.1.15,2017-05-25 23:08:00,
2017-05-25 16:15:00,68.6,54.2,29.83,North,352,3.0,9.0,60,0.00,,,0.00,Wunderground v.1.15,2017-05-25 23:15:00,
2017-05-25 16:21:00,68.4,54.0,29.83,WNW,302,3.0,4.0,60,0.00,,,0.00,Wunderground v.1.15,2017-05-25 23:21:00,
2017-05-25 16:28:00,69.2,54.3,29.83,North,11,2.0,4.0,59,0.00,,,0.00,Wunderground v.1.15,2017-05-25 23:28:00,
2017-05-25 16:34:00,69.0,53.1,29.83,NW,325,3.0,4.0,57,0.00,,,0.00,Wunderground v.1.15,2017-05-25 23:34:00,
2017-05-25 16:40:00,69.6,54.6,29.83,NW,305,3.0,3.0,59,0.00,,,0.00,Wunderground v.1.15,2017-05-25 23:40:00,
2017-05-25 16:45:00,70.1,54.6,29.83,NW,326,1.0,3.0,58,0.00,,,0.00,Wunderground v.1.15,2017-05-25 23:45:00,
2017-05-25 16:52:00,70.2,54.2,29.83,North,6,1.0,2.0,57,0.00,,,0.00,Wunderground v.1.15,2017-05-25 23:52:00,
2017-05-25 16:57:00,71.0,54.5,29.82,NNE,21,1.0,2.0,56,0.00,,,0.00,Wunderground v.1.15,2017-05-25 23:57:00,
2017-05-25 17:06:00,69.5,53.6,29.83,WNW,299,2.0,5.0,57,0.00,,,0.00,Wunderground v.1.15,2017-05-26 00:06:00,
2017-05-25 17:12:00,69.0,53.6,29.83,WNW,302,4.0,4.0,58,0.00,,,0.00,Wunderground v.1.15,2017-05-26 00:12:00,
2017-05-25 17:17:00,68.4,53.0,29.83,WNW,293,4.0,4.0,58,0.00,,,0.00,Wunderground v.1.15,2017-05-26 00:17:00,
2017-05-25 17:23:00,68.9,54.0,29.82,NE,38,3.0,4.0,59,0.00,,,0.00,Wunderground v.1.15,2017-05-26 00:23:00,
2017-05-25 17:30:00,69.2,54.3,29.82,North,360,2.0,2.0,59,0.00,,,0.00,Wunderground v.1.15,2017-05-26 00:30:00,
2017-05-25 17:36:00,69.8,53.9,29.82,WNW,302,2.0,4.0,57,0.00,,,0.00,Wunderground v.1.15,2017-05-26 00:36:00,
2017-05-25 17:42:00,69.3,54.4,29.82,NE,55,2.0,2.0,59,0.00,,,0.00,Wunderground v.1.15,2017-05-26 00:42:00,
2017-05-25 17:48:00,69.5,54.1,29.82,North,8,2.0,4.0,58,0.00,,,0.00,Wunderground v.1.15,2017-05-26 00:48:00,